This is the latest recevied weather packets stored in our database for station/object AE0NK. If no packets are shown the sender has not sent any weather packets the latest 10 day(s).
| Time | Temp. | Humidity | Pressure | Rain* | Wind** | Luminosity | Snow |
|---|---|---|---|---|---|---|---|
| 1777643010 | 7.78° C | 61% | 1017.4 hPa | 0 mm | - | 120 W/m² | - |
| 1777642708 | 7.78° C | 60% | 1017.5 hPa | 0 mm | - | 141 W/m² | - |
| 1777642405 | 7.78° C | 60% | 1017.4 hPa | 0 mm | - | 130 W/m² | - |
| 1777642104 | 7.78° C | 60% | 1017.5 hPa | 0 mm | - | 148 W/m² | - |
| 1777641800 | 7.78° C | 65% | 1017.4 hPa | 0 mm | - | 257 W/m² | - |
| 1777641498 | 7.22° C | 64% | 1017.4 hPa | 0 mm | - | 199 W/m² | - |
| 1777641194 | 6.67° C | 67% | 1017.4 hPa | 0 mm | - | 237 W/m² | - |
| 1777640910 | 6.11° C | 72% | 1017.4 hPa | 0 mm | - | 262 W/m² | - |
| 1777640608 | 5.56° C | 74% | 1017.3 hPa | 0 mm | - | 88 W/m² | - |
| 1777640302 | 5° C | 75% | 1017.4 hPa | 0 mm | - | 113 W/m² | - |
| 1777640000 | 5° C | 75% | 1017.4 hPa | 0 mm | - | 98 W/m² | - |
| 1777639698 | 5° C | 77% | 1017.5 hPa | 0 mm | - | 44 W/m² | - |
| 1777639395 | 4.44° C | 78% | 1017.6 hPa | 0 mm | - | 65 W/m² | - |
| 1777639092 | 4.44° C | 79% | 1017.5 hPa | 0 mm | - | 69 W/m² | - |
| 1777638809 | 4.44° C | 80% | 1017.5 hPa | 0 mm | - | 69 W/m² | - |
| 1777638506 | 4.44° C | 80% | 1017.6 hPa | 0 mm | - | 62 W/m² | - |
| 1777638204 | 3.89° C | 80% | 1017.5 hPa | 0 mm | - | 69 W/m² | - |
| 1777637901 | 3.89° C | 80% | 1017.5 hPa | 0 mm | - | 62 W/m² | - |
| 1777637598 | 3.89° C | 80% | 1017.4 hPa | 0 mm | - | 42 W/m² | - |
| 1777637297 | 3.89° C | 80% | 1017.5 hPa | 0 mm | - | 33 W/m² | - |
| 1777636994 | 3.89° C | 81% | 1017.5 hPa | 0 mm | - | 28 W/m² | - |
| 1777636710 | 3.33° C | 81% | 1017.5 hPa | 0 mm | - | 19 W/m² | - |
| 1777636408 | 3.33° C | 80% | 1017.5 hPa | 0 mm | - | 21 W/m² | - |
| 1777636102 | 3.33° C | 80% | 1017.5 hPa | 0 mm | - | 26 W/m² | - |
| 1777635802 | 3.33° C | 80% | 1017.4 hPa | 0 mm | - | 28 W/m² | - |
* Rain latest hour (hover to see other rain measurements)
** Current wind speed in m/s (hover to see current wind gust speed)